Time,TemperatureF,DewpointF,PressureIn,WindDirection,WindDirectionDegrees,WindSpeedMPH,WindSpeedGustMPH,Humidity,HourlyPrecipIn,Conditions,Clouds,dailyrainin,SoftwareType,DateUTC
2013-11-28 00:12:00,28.0,27.0,29.44,NNW,331,6.0,12.0,94,0.00,,,1.00,,2013-11-28 05:12:00,
2013-11-28 00:22:00,28.0,26.0,29.44,West,267,5.0,13.0,92,0.00,,,1.00,,2013-11-28 05:22:00,
2013-11-28 00:43:00,28.0,26.0,29.45,NW,305,8.0,17.0,92,0.00,,,1.00,,2013-11-28 05:43:00,
2013-11-28 00:53:00,28.0,26.0,29.47,West,281,6.0,16.0,91,0.00,,,1.00,,2013-11-28 05:53:00,
2013-11-28 01:12:00,28.0,26.0,29.47,SW,236,9.0,19.0,91,0.00,,,1.00,,2013-11-28 06:12:00,
2013-11-28 01:22:00,28.0,26.0,29.49,WNW,302,5.0,12.0,92,0.00,,,1.00,,2013-11-28 06:22:00,
2013-11-28 01:42:00,28.0,26.0,29.49,WNW,291,4.0,10.0,92,0.00,,,1.00,,2013-11-28 06:42:00,
2013-11-28 01:52:00,28.0,26.0,29.51,WSW,245,2.0,11.0,92,0.00,,,1.00,,2013-11-28 06:52:00,
2013-11-28 02:11:00,28.0,27.0,29.52,WNW,288,4.0,12.0,94,0.00,,,1.00,,2013-11-28 07:11:00,
2013-11-28 02:22:00,27.0,26.0,29.54,WNW,298,4.0,14.0,95,0.00,,,1.00,,2013-11-28 07:22:00,
2013-11-28 02:42:00,27.0,26.0,29.55,WNW,293,6.0,18.0,94,0.00,,,1.00,,2013-11-28 07:42:00,
2013-11-28 02:52:00,27.0,25.0,29.56,West,263,5.0,14.0,92,0.00,,,1.00,,2013-11-28 07:52:00,
2013-11-28 03:11:00,27.0,24.0,29.57,WSW,242,6.0,19.0,90,0.00,,,1.00,,2013-11-28 08:11:00,
2013-11-28 03:22:00,26.0,23.0,29.59,West,266,5.0,16.0,89,0.00,,,1.00,,2013-11-28 08:22:00,
2013-11-28 03:42:00,26.0,23.0,29.59,West,280,3.0,9.0,88,0.00,,,1.00,,2013-11-28 08:42:00,
2013-11-28 03:53:00,26.0,23.0,29.60,West,276,4.0,13.0,88,0.00,,,1.00,,2013-11-28 08:53:00,
2013-11-28 04:22:00,24.0,20.0,29.63,WNW,301,5.0,16.0,85,0.00,,,1.00,,2013-11-28 09:22:00,
2013-11-28 04:43:00,24.0,20.0,29.65,South,179,6.0,19.0,84,0.00,,,0.98,,2013-11-28 09:43:00,
2013-11-28 04:53:00,23.0,18.0,29.67,WNW,288,6.0,19.0,82,0.00,,,0.98,,2013-11-28 09:53:00,
2013-11-28 05:23:00,23.0,19.0,29.70,ENE,63,4.0,13.0,84,0.00,,,0.98,,2013-11-28 10:23:00,
2013-11-28 05:43:00,22.0,18.0,29.72,WNW,301,3.0,14.0,84,0.00,,,0.98,,2013-11-28 10:43:00,
2013-11-28 05:52:00,22.0,18.0,29.73,West,276,4.0,11.0,86,0.00,,,0.98,,2013-11-28 10:52:00,
2013-11-28 06:12:00,22.0,18.0,29.75,West,267,5.0,17.0,86,0.00,,,0.98,,2013-11-28 11:12:00,
2013-11-28 06:22:00,21.0,17.0,29.78,WSW,252,6.0,14.0,86,0.00,,,0.98,,2013-11-28 11:22:00,
2013-11-28 06:42:00,21.0,18.0,29.78,West,278,4.0,11.0,87,0.00,,,0.98,,2013-11-28 11:42:00,
2013-11-28 06:52:00,21.0,18.0,29.80,WNW,288,3.0,9.0,88,0.00,,,0.98,,2013-11-28 11:52:00,
2013-11-28 07:22:00,20.0,16.0,29.82,WNW,288,5.0,16.0,84,0.00,,,0.98,,2013-11-28 12:22:00,
2013-11-28 07:52:00,19.0,15.0,29.86,WNW,287,6.0,13.0,83,0.00,,,0.98,,2013-11-28 12:52:00,
2013-11-28 08:22:00,19.0,14.0,29.90,West,262,5.0,13.0,81,0.00,,,0.98,,2013-11-28 13:22:00,
2013-11-28 08:42:00,18.0,13.0,29.91,West,259,6.0,15.0,79,0.00,,,0.86,,2013-11-28 13:42:00,
2013-11-28 08:52:00,18.0,13.0,29.93,West,266,3.0,16.0,79,0.00,,,0.86,,2013-11-28 13:52:00,
2013-11-28 09:11:00,18.0,13.0,29.94,West,264,5.0,13.0,79,0.00,,,0.86,,2013-11-28 14:11:00,
2013-11-28 09:22:00,18.0,13.0,29.96,SW,222,6.0,11.0,80,0.00,,,0.86,,2013-11-28 14:22:00,
2013-11-28 09:42:00,18.0,13.0,29.98,West,272,3.0,12.0,81,0.00,,,0.54,,2013-11-28 14:42:00,
2013-11-28 09:52:00,18.0,13.0,30.00,West,278,4.0,14.0,79,0.00,,,0.54,,2013-11-28 14:52:00,
2013-11-28 10:22:00,17.0,11.0,30.03,WNW,297,4.0,16.0,76,0.00,,,0.54,,2013-11-28 15:22:00,
2013-11-28 10:44:00,17.0,11.0,30.03,West,274,4.0,15.0,76,0.00,,,0.33,,2013-11-28 15:44:00,
2013-11-28 10:54:00,17.0,10.0,30.03,West,271,6.0,18.0,75,0.00,,,0.33,,2013-11-28 15:54:00,
2013-11-28 11:13:00,17.0,10.0,30.04,WSW,239,5.0,13.0,75,0.00,,,0.18,,2013-11-28 16:13:00,
2013-11-28 11:23:00,18.0,12.0,30.05,WSW,256,4.0,14.0,76,0.00,,,0.18,,2013-11-28 16:23:00,
2013-11-28 11:43:00,18.0,11.0,30.06,NW,318,2.0,13.0,74,0.00,,,0.18,,2013-11-28 16:43:00,
2013-11-28 11:54:00,18.0,11.0,30.07,West,264,3.0,12.0,73,0.00,,,0.18,,2013-11-28 16:54:00,
2013-11-28 12:12:00,19.0,11.0,30.07,WNW,299,6.0,16.0,71,0.00,,,0.10,,2013-11-28 17:12:00,
2013-11-28 12:23:00,19.0,10.0,30.08,NW,309,3.0,11.0,68,0.00,,,0.10,,2013-11-28 17:23:00,
2013-11-28 12:42:00,19.0,10.0,30.09,WNW,288,6.0,16.0,66,0.00,,,0.10,,2013-11-28 17:42:00,
2013-11-28 12:52:00,19.0,9.0,30.10,WSW,238,5.0,13.0,65,0.00,,,0.10,,2013-11-28 17:52:00,
2013-11-28 13:22:00,20.0,10.0,30.11,SE,140,4.0,15.0,64,0.00,,,0.07,,2013-11-28 18:22:00,
2013-11-28 13:42:00,20.0,9.0,30.12,West,276,5.0,11.0,62,0.00,,,0.07,,2013-11-28 18:42:00,
2013-11-28 13:52:00,20.0,8.0,30.13,WNW,300,7.0,15.0,59,0.00,,,0.07,,2013-11-28 18:52:00,
2013-11-28 14:22:00,21.0,9.0,30.14,West,274,5.0,14.0,59,0.00,,,0.04,,2013-11-28 19:22:00,
2013-11-28 14:42:00,21.0,8.0,30.15,WNW,302,7.0,15.0,56,0.00,,,0.04,,2013-11-28 19:42:00,
2013-11-28 14:52:00,21.0,9.0,30.15,WNW,284,4.0,11.0,59,0.00,,,0.04,,2013-11-28 19:52:00,
2013-11-28 15:12:00,20.0,7.0,30.16,West,266,4.0,16.0,56,0.00,,,0.03,,2013-11-28 20:12:00,
2013-11-28 15:22:00,20.0,7.0,30.19,West,278,5.0,14.0,57,0.00,,,0.03,,2013-11-28 20:22:00,
2013-11-28 15:52:00,20.0,7.0,30.20,WNW,284,8.0,16.0,57,0.00,,,0.03,,2013-11-28 20:52:00,
2013-11-28 16:11:00,19.0,7.0,30.21,WSW,253,5.0,13.0,58,0.00,,,0.00,,2013-11-28 21:11:00,
2013-11-28 16:21:00,19.0,7.0,30.22,WSW,242,4.0,13.0,60,0.00,,,0.00,,2013-11-28 21:21:00,
2013-11-28 16:43:00,19.0,8.0,30.23,WSW,246,4.0,11.0,61,0.00,,,0.00,,2013-11-28 21:43:00,
2013-11-28 16:53:00,19.0,7.0,30.24,West,259,4.0,15.0,58,0.00,,,0.00,,2013-11-28 21:53:00,
2013-11-28 17:13:00,18.0,6.0,30.25,South,184,3.0,10.0,59,0.00,,,0.00,,2013-11-28 22:13:00,
2013-11-28 17:23:00,18.0,6.0,30.26,NNE,18,5.0,12.0,58,0.00,,,0.00,,2013-11-28 22:23:00,
2013-11-28 17:42:00,18.0,6.0,30.28,West,277,2.0,9.0,59,0.00,,,0.00,,2013-11-28 22:42:00,
2013-11-28 17:53:00,18.0,7.0,30.29,WNW,283,2.0,9.0,61,0.00,,,0.00,,2013-11-28 22:53:00,
2013-11-28 18:12:00,18.0,7.0,30.30,SW,228,4.0,11.0,61,0.00,,,0.00,,2013-11-28 23:12:00,
2013-11-28 18:22:00,17.0,7.0,30.31,WNW,284,2.0,9.0,63,0.00,,,0.00,,2013-11-28 23:22:00,
2013-11-28 18:42:00,17.0,7.0,30.32,West,273,3.0,8.0,64,0.00,,,0.00,,2013-11-28 23:42:00,
2013-11-28 18:52:00,17.0,8.0,30.33,SE,136,2.0,8.0,66,0.00,,,0.00,,2013-11-28 23:52:00,
2013-11-28 19:11:00,17.0,8.0,30.34,West,271,3.0,7.0,66,0.00,,,0.00,,2013-11-29 00:11:00,
2013-11-28 19:22:00,17.0,8.0,30.35,West,262,2.0,7.0,68,0.00,,,0.00,,2013-11-29 00:22:00,
2013-11-28 19:52:00,16.0,7.0,30.36,WNW,302,1.0,5.0,68,0.00,,,0.00,,2013-11-29 00:52:00,
2013-11-28 20:12:00,17.0,8.0,30.36,West,281,2.0,7.0,66,0.00,,,0.00,,2013-11-29 01:12:00,
2013-11-28 20:22:00,16.0,7.0,30.37,West,280,1.0,6.0,68,0.00,,,0.00,,2013-11-29 01:22:00,
2013-11-28 20:42:00,16.0,8.0,30.37,West,259,0.0,5.0,69,0.00,,,0.00,,2013-11-29 01:42:00,
2013-11-28 20:52:00,16.0,8.0,30.38,WSW,253,1.0,4.0,70,0.00,,,0.00,,2013-11-29 01:52:00,
2013-11-28 21:12:00,16.0,7.0,30.38,West,276,0.0,5.0,68,0.00,,,0.00,,2013-11-29 02:12:00,
2013-11-28 21:22:00,16.0,8.0,30.39,WNW,293,1.0,2.0,69,0.00,,,0.00,,2013-11-29 02:22:00,
2013-11-28 21:42:00,16.0,8.0,30.40,WSW,243,1.0,7.0,70,0.00,,,0.00,,2013-11-29 02:42:00,
2013-11-28 21:52:00,15.0,8.0,30.40,West,259,0.0,4.0,72,0.00,,,0.00,,2013-11-29 02:52:00,
2013-11-28 22:22:00,15.0,6.0,30.41,West,267,0.0,4.0,68,0.00,,,0.00,,2013-11-29 03:22:00,
2013-11-28 22:43:00,15.0,7.0,30.41,NW,307,0.0,4.0,69,0.00,,,0.00,,2013-11-29 03:43:00,
2013-11-28 22:54:00,14.0,6.0,30.42,West,277,0.0,2.0,71,0.00,,,0.00,,2013-11-29 03:54:00,
2013-11-28 23:13:00,14.0,7.0,30.42,SSW,211,0.0,1.0,74,0.00,,,0.00,,2013-11-29 04:13:00,
2013-11-28 23:23:00,14.0,7.0,30.42,SSW,211,0.0,1.0,74,0.00,,,0.00,,2013-11-29 04:23:00,
2013-11-28 23:43:00,14.0,7.0,30.43,NW,304,1.0,4.0,73,0.00,,,0.00,,2013-11-29 04:43:00,
2013-11-28 23:52:00,13.0,7.0,30.43,WNW,291,0.0,1.0,75,0.00,,,0.00,,2013-11-29 04:52:00,